Location: Chmeln�
(49.6483°N, 14.9871°E)
Time: 04:13:23
(UTC+00:00)

Okean 2 Rocket - Pass Details

Date: 18 September 2020
Orbit: 616 x 642 km, 82.5° (Epoch: 29 October)

Event Time Altitude Azimuth Distance (km) Brightness Sun altitude
Rises 18:03:34 0° 167° (SSE) 2,934 6.3 -10.0°
Reaches altitude 10° 18:05:54 10° 160° (SSE) 2,027 5.4 -10.4°
Maximum altitude 18:10:05 39° 92° (E) 958 3.6 -11.0°
Drops below altitude 10° 18:14:17 10° 24° (NNE) 2,030 5.6 -11.7°
Sets 18:16:37 0° 17° (NNE) 2,939 6.5 -12.1°
